Location: Fort Wayne
(41.1310°N, 85.1290°W)
Time: 14:03:25
(UTC-05:00)

COSMOS 2428 - Visible Passes

Search period start: 21 November 2014 00:00
Search period end: 01 December 2014 00:00
Orbit: 842 x 860 km, 71.0° (Epoch: 21 November)

Date Brightness Start Highest point End Pass type
(mag) Time Alt. Az. Time Alt. Az. Time Alt. Az.
26 Nov 4.9 19:05:33 10° NNE 19:05:40 10° NNE 19:05:40 10° NNE visible
27 Nov 4.7 18:53:15 10° NNE 18:53:58 12° NNE 18:53:58 12° NNE visible
27 Nov 5.2 20:35:38 10° NNW 20:35:59 12° NNW 20:35:59 12° NNW visible
28 Nov 4.6 18:40:57 10° NNE 18:42:20 13° NNE 18:42:20 13° NNE visible
28 Nov 4.9 20:23:20 10° NNW 20:24:22 16° NNW 20:24:22 16° NNW visible
29 Nov 4.4 18:28:39 10° NNE 18:30:50 14° NE 18:30:50 14° NE visible
29 Nov 4.5 20:11:01 10° NNW 20:12:52 21° NNW 20:12:52 21° NNW visible
30 Nov 4.3 18:16:21 10° NNE 18:19:15 14° NE 18:19:29 14° NE visible
30 Nov 4.0 19:58:43 10° NNW 20:01:32 30° NNW 20:01:32 30° NNW visible
